Regional Weather Roundup
Issued by NWS

Home | Current Version | Previous Version | Graphics & Text | Print | Product List | Glossary On
Versions: 1 2 3 4 5 6 7 8 9 10 11 12 13 14 15 16 17 18 19 20 21 22 23 24 25 26 27 28 29 30 31 32 33 34 35 36 37 38 39 40 41 42 43 44 45 46 47 48 49 50
000
ASUS43 KLOT 282104
RWRIL

ILLINOIS REGIONAL WEATHER ROUNDUP
NATIONAL WEATHER SERVICE CHICAGO/ROMEOVILLE IL
400 PM CDT WED JUN 28 2017

NOTE: "FAIR" INDICATES FEW OR NO CLOUDS BELOW 12,000 FEET WITH NO
SIGNIFICANT WEATHER AND/OR OBSTRUCTIONS TO VISIBILITY.

* THESE STATIONS ARE NOT UNDER NWS QUALITY CONTROL. THEY ALSO MAY NOT
  REPORT WEATHER SUCH AS PRECIPITATION OR FOG.

ILZ001-002-007-009-015-016-024-282200-
NORTHWEST ILLINOIS

CITY           SKY/WX    TMP DP  RH WIND       PRES   REMARKS
MOLINE         CLOUDY    81  69  67 S9G23     29.76F HX  84
STERLING*      CLOUDY    74  70  87 VRB6      29.79F
SAVANNA*       CLOUDY    76  68  75 S14       29.78R
$$

ILZ003-004-008-010-011-017-018-282200-
NORTH CENTRAL ILLINOIS

CITY           SKY/WX    TMP DP  RH WIND       PRES   REMARKS
ROCKFORD       CLOUDY    77  70  79 S20       29.80F
FREEPORT*      CLOUDY    73  67  81 S16G23    29.81S
ROCHELLE*      TSTM      72  67  85 S16G24    29.83R
DE KALB*       CLOUDY    76  66  72 S22G33    29.84S
PERU*          MOSUNNY   77  64  64 S13G24    29.84S
$$

ILZ005-006-012>014-019>023-282200-
NORTHEAST ILLINOIS

CITY           SKY/WX    TMP DP  RH WIND       PRES   REMARKS
CHICAGO-OHARE  CLOUDY    79  61  53 S20       29.83F HX  80
CHICAGO-MIDWAY CLOUDY    81  60  48 S21G26    29.83F HX  82
AURORA         CLOUDY    79  64  60 S24G35    29.83F HX  81
LANSING*       CLOUDY    82  57  43 S22G28    29.87F HX  81
JOLIET*        CLOUDY    82  64  53 S17G30    29.86S HX  84
WAUKEGAN       CLOUDY    72  63  73 S10       29.82F
DUPAGE AIRPORT CLOUDY    78  66  66 S23G31    29.83F HX  80
WHEELING       CLOUDY    76  64  66 S17       29.84F
MORRIS*        CLOUDY    81  62  51 S23G32    29.84S HX  82
ROMEOVILLE*    CLOUDY    81  60  48 S30G37    29.84F HX  81
$$

LMZ740>746-282200-
SOUTHERN LAKE MICHIGAN

STATION/POSITION SKY/WX   TEMP    WIND        PRES    VSBY  WAVE
                          AIR SEA DIR/SP/G                  HT/PER
                          (F)     (DEG/KT/KT) (MB)    (MI)  (FT/S)
SOUTHERN BUOY              65 60  170/ 17/ 19 1010.9          4/ 5
WILMETTE HARBOR            73 62  190/ 17/ 25   N/A           2/ 4
HARRISON CRIB              76     180/ 27/ 29   N/A
BURNHAM HARBOR             78                   N/A
CALUMET HARBOR             78     170/ 18/ 24 1010.6F
BURNS HARBOR               77     180/ 14/ 23 1012.2F
MICHIGAN CITY              75     170/ 17/ 21   N/A
MICHIGAN CITY 6N           73 66  180/ 17/ 25   N/A           3/ 3
ST. JOSEPH                 73 67  190/ 19/ 25 1012.0F         4/ 3
$$

ILZ025>027-034>036-040-047-049-050-058-095>099-282200-
WEST-CENTRAL ILLINOIS

CITY           SKY/WX    TMP DP  RH WIND       PRES   REMARKS
QUINCY         MOSUNNY   87  67  51 S15G26    29.83F HX  90
GALESBURG*     PTSUNNY   79  69  72 S13G20    29.82R HX  82
MACOMB*        LGT RAIN  79  68  69 S15G21    29.84F HX  81
JACKSONVILLE*  SUNNY     85  61  44 S20       29.87R HX  86
PITTSFIELD*    SUNNY     86  65  50 S20G28    29.86S HX  88
$$

ILZ028>032-037-038-041>044-048-051>054-059>061-282200-
CENTRAL ILLINOIS

CITY           SKY/WX    TMP DP  RH WIND       PRES   REMARKS
PONTIAC        CLOUDY    83  62  49 S25G33    29.88S HX  84
BLOOMINGTON    CLOUDY    82  65  56 S24G36    29.88F HX  84
DECATUR        MOSUNNY   84  63  49 S20       29.91F HX  85
PEORIA         SUNNY     85  64  49 S23G31    29.83F HX  86
LACON*         CLOUDY    82  64  54 S14G25    29.82F HX  83
LINCOLN*       MOSUNNY   85  63  47 S20G30    29.87S HX  86
SPRINGFIELD    MOSUNNY   86  65  49 S22G32    29.87F HX  88
TAYLORVILLE    MOSUNNY   83  65  54 S21G30    29.89F HX  84
$$

ILZ033-039-045-046-055>057-062-063-282200-
EAST-CENTRAL ILLINOIS

CITY           SKY/WX    TMP DP  RH WIND       PRES   REMARKS
CHAMPAIGN      CLOUDY    83  60  45 S22G29    29.93S HX  83
RANTOUL*       CLOUDY    83  63  51 S16G23    29.93S HX  84
MATTOON        MOSUNNY   81  65  58 S14G23    29.94F HX  83
$$

ILZ079-100>102-282200-
SOUTHWEST ILLINOIS

CITY           SKY/WX    TMP DP  RH WIND       PRES   REMARKS
ALTON          PTSUNNY   84  66  54 S14G21    29.90F HX  86
BELLEVILLE     MOSUNNY   87  66  49 SW16G24   29.92F HX  89
CAHOKIA*       SUNNY     88  62  41 S16G23    29.90F HX  88
SPARTA*        PTSUNNY   85  63  47 S15G24    29.95F HX  85
$$

ILZ064>066-069>071-074>076-080>082-084>086-088>090-092>094-282200-
SOUTH-CENTRAL ILLINOIS

CITY           SKY/WX    TMP DP  RH WIND       PRES   REMARKS
CARBONDALE     CLOUDY    85  67  54 S17       29.96F HX  87
CAIRO*         MOSUNNY   86  65  49 S9G17     29.99F HX  87
EFFINGHAM*     MOSUNNY   85  63  47 S14       29.98R HX  85
MARION         PTSUNNY   84  68  58 S9        29.99F HX  87
MT. VERNON     CLOUDY    86  66  51 S18       29.96F HX  88
CENTRALIA*     PTSUNNY   84  66  54 S14G20    29.95S HX  86
SALEM*         PTSUNNY   84  62  47 S15G24    29.95F HX  84
METROPOLIS*    HVY RAIN  85  65  51 S8        30.00F HX  86
$$

ILZ067-068-072-073-078-083-087-091-282200-
SOUTHEAST ILLINOIS

CITY           SKY/WX    TMP DP  RH WIND       PRES   REMARKS
LAWRENCEVILLE  PTSUNNY   83  63  50 S16       29.99F HX  84
FLORA*         PTSUNNY   86  62  44 S20G25    29.96F HX  87
FAIRFIELD*     PTSUNNY   84  64  50 S10       29.96F HX  85
HARRISBURG*    MOSUNNY   83  66  56 S9        29.99F HX  85
ROBINSON*      MOSUNNY   82  62  50 S15G22    29.98F HX  83
CARMI*         CLOUDY    82  64  53 S14G20    29.98F HX  83
$$

ABBREVIATIONS USED IN REMARKS
   TC - TEMPERATURE IN CELSIUS
  WCI - WIND CHILL INDEX
   HX - HEAT INDEX
  VSB - VISIBILITY
$$





USA.gov is the U.S. government's official web portal to all federal, state and local government web resources and services.